Fairbanks Eiels, AK

9:28 AM AKDT on May 23, 2017 (GMT -0800)
Eielson Air Force Base

Weather History for PAEI - February, 2013

Change the Weather History Date:

Sunday, February 10, 2013

  Actual Average Record
Temperature  
Mean Temperature 20 °F -  
Max Temperature 28 °F 6 °F 46 °F (2004)
Min Temperature 13 °F -12 °F -49 °F (1950)
Degree Days  
Heating Degree Days 44    
Moisture  
Dew Point 17 °F    
Average Humidity 86    
Maximum Humidity 93    
Minimum Humidity 73    
Precipitation  
Precipitation 0.00 in - - ()
Sea Level Pressure  
Sea Level Pressure 29.20 in    
Wind  
Wind Speed 5 mph (West)    
Max Wind Speed 9 mph    
Max Gust Speed -    
Visibility 10 miles    
Events      
Averages and records for this station are not official NWS values.
T = Trace of Precipitation, MM = Missing Value Source: NWS Daily Summary

Daily Weather History Graph

Daily Weather History Graph

Search for Another Location

Airport or City:

Trip Planner

Search our weather history database for the weather conditions in past years. The results will help you decide how hot, cold, wet, or windy it might be!

Date:

Astronomy

Feb. 10, 2013 Rise Set
Actual Time 9:01 AM AKST 5:04 PM AKST
Civil Twilight 8:07 AM AKST 5:58 PM AKST
Nautical Twilight 7:09 AM AKST 6:56 PM AKST
Astronomical Twilight 6:13 AM AKST 7:53 PM AKST
Moon 8:23 AM AKST (2/10) 6:49 PM AKST (2/10)
Length of Visible Light 9h 51m
Length of Day
8h 03m
New Moon, 0% of the Moon is Illuminated
Feb 10
New Moon
Feb 17
First Quarter
Feb 25
Full
Mar 4
Last Quarter
Mar 11
New

Hourly Weather History & Observations

Time (AKST) Temp. Windchill Dew Point Humidity Pressure Visibility Wind Dir Wind Speed Gust Speed Precip Events Conditions
12:55 AM 28.9 °F 20.4 °F 21.2 °F 73% 29.03 in 10.0 mi SE 9.2 mph - N/A   Clear
1:55 AM 21.9 °F 15.7 °F 19.0 °F 89% 29.02 in 10.0 mi Variable 4.6 mph - N/A   Partly Cloudy
2:55 AM 23.9 °F 18.0 °F 21.0 °F 89% 29.00 in 10.0 mi NNW 4.6 mph - N/A   Overcast
3:55 AM 18.9 °F 10.8 °F 16.2 °F 89% 28.99 in 10.0 mi NNW 5.8 mph - N/A   Scattered Clouds
4:55 AM 21.6 °F 16.8 °F 18.1 °F 87% 28.98 in 10.0 mi NNW 3.5 mph - N/A   Partly Cloudy
5:55 AM 19.9 °F 11.1 °F 17.2 °F 89% 28.98 in 10.0 mi North 6.9 mph - N/A   Scattered Clouds
6:55 AM 22.8 °F - 19.9 °F 89% 28.98 in 10.0 mi Calm Calm - N/A   Partly Cloudy
7:55 AM 22.1 °F - 19.4 °F 89% 28.98 in 10.0 mi Calm Calm - N/A   Scattered Clouds
8:55 AM 25.2 °F 18.3 °F 22.1 °F 88% 29.00 in 10.0 mi WNW 5.8 mph - N/A   Clear
9:55 AM 23.0 °F - 20.1 °F 89% 29.02 in 10.0 mi Calm Calm - N/A   Mostly Cloudy
10:55 AM 22.8 °F - 19.8 °F 88% 29.05 in 10.0 mi Calm Calm - N/A   Partly Cloudy
11:55 AM 24.8 °F - 21.9 °F 89% 29.06 in 10.0 mi Calm Calm - N/A   Scattered Clouds
12:55 PM 27.9 °F 24.0 °F 23.9 °F 85% 29.10 in 10.0 mi West 3.5 mph - N/A   Mostly Cloudy
1:55 PM 27.1 °F - 23.5 °F 86% 29.13 in 10.0 mi Calm Calm - N/A   Partly Cloudy
2:55 PM 20.8 °F 11.2 °F 16.3 °F 83% 29.21 in 10.0 mi WNW 8.1 mph - N/A   Scattered Clouds
3:55 PM 16.2 °F 6.5 °F 10.8 °F 79% 29.28 in 10.0 mi Variable 6.9 mph - N/A   Clear
4:55 PM 13.5 °F 5.8 °F 8.4 °F 80% 29.34 in 10.0 mi Variable 4.6 mph - N/A   Clear
5:55 PM 14.4 °F 6.9 °F 8.6 °F 78% 29.37 in 10.0 mi Variable 4.6 mph - N/A   Clear
6:55 PM 14.7 °F 7.3 °F 9.7 °F 80% 29.40 in 10.0 mi Variable 4.6 mph - N/A   Mostly Cloudy
7:55 PM 14.7 °F 9.0 °F 10.0 °F 82% 29.43 in 10.0 mi South 3.5 mph - N/A   Overcast
8:55 PM 15.4 °F - 11.5 °F 84% 29.45 in 10.0 mi Calm Calm - N/A   Overcast
9:55 PM 18.3 °F 10.2 °F 13.8 °F 83% 29.48 in 10.0 mi South 5.8 mph - N/A   Overcast
10:55 PM 19.6 °F 14.5 °F 16.3 °F 87% 29.50 in 10.0 mi SSW 3.5 mph - N/A   Overcast
11:05 PM 19.4 °F 12.8 °F 17.6 °F 93% 29.50 in 10.0 mi Variable 4.6 mph - N/A   Overcast
11:30 PM 19.4 °F - 17.6 °F 93% 29.51 in 10.0 mi Calm Calm - N/A   Overcast
11:55 PM 19.9 °F 14.9 °F 18.0 °F 92% 29.52 in 10.0 mi SE 3.5 mph - N/A   Overcast